Year,Month,Day,Hour,Minute,Value (Times are PST for temperature in C)
2023,04,23,00,00,8.60
2023,04,23,00,05,8.60
2023,04,23,00,10,8.60
2023,04,23,00,15,8.60
2023,04,23,00,20,8.60
2023,04,23,00,25,8.60
2023,04,23,00,30,8.60
2023,04,23,00,35,8.60
2023,04,23,00,40,8.60
2023,04,23,00,50,8.70
2023,04,23,00,55,8.60
2023,04,23,01,00,8.70
2023,04,23,01,05,8.60
2023,04,23,01,10,8.60
2023,04,23,01,15,8.70
2023,04,23,01,20,8.60
2023,04,23,01,25,8.60
2023,04,23,01,30,8.60
2023,04,23,01,35,8.60
2023,04,23,01,40,8.60
2023,04,23,01,45,8.60
2023,04,23,01,50,8.60
2023,04,23,01,55,8.60
2023,04,23,02,00,8.60
2023,04,23,02,05,8.60
2023,04,23,02,10,8.60
2023,04,23,02,15,8.60
2023,04,23,02,20,8.60
2023,04,23,02,30,8.60
2023,04,23,02,35,8.60
2023,04,23,02,40,8.60
2023,04,23,02,45,8.60
2023,04,23,02,50,8.60
2023,04,23,02,55,8.60
2023,04,23,03,00,8.60
2023,04,23,03,10,8.50
2023,04,23,03,15,8.50
2023,04,23,03,20,8.50
2023,04,23,03,25,8.50
2023,04,23,03,30,8.50
2023,04,23,03,35,8.50
2023,04,23,03,40,8.50
2023,04,23,03,45,8.60
2023,04,23,03,50,8.60
2023,04,23,03,55,8.60
2023,04,23,04,00,8.50
2023,04,23,04,05,8.60
2023,04,23,04,10,8.60
2023,04,23,04,15,8.60
2023,04,23,04,20,8.60
2023,04,23,04,25,8.50
2023,04,23,04,30,8.60
2023,04,23,04,35,8.50
2023,04,23,04,45,8.60
2023,04,23,04,50,8.60
2023,04,23,04,55,8.60
2023,04,23,05,00,8.60
2023,04,23,05,05,8.70
2023,04,23,05,10,8.60
2023,04,23,05,15,8.60
2023,04,23,05,20,8.60
2023,04,23,05,25,8.60
2023,04,23,05,30,8.50
2023,04,23,05,35,8.50
2023,04,23,05,40,8.50
2023,04,23,05,45,8.60
2023,04,23,05,50,8.60
2023,04,23,05,55,8.50
2023,04,23,06,00,8.60
2023,04,23,06,05,8.50
2023,04,23,06,10,8.60
2023,04,23,06,15,8.60
2023,04,23,06,20,8.60
2023,04,23,06,25,8.50
2023,04,23,06,30,8.50
2023,04,23,06,35,8.50
2023,04,23,06,40,8.50
2023,04,23,06,45,8.50
2023,04,23,06,50,8.50
2023,04,23,06,55,8.50
2023,04,23,07,00,8.40
2023,04,23,07,05,8.40
2023,04,23,07,10,8.40
2023,04,23,07,15,8.40
2023,04,23,07,20,8.40
2023,04,23,07,25,8.40
2023,04,23,07,30,8.40
2023,04,23,07,35,8.40
2023,04,23,07,40,8.40
2023,04,23,07,45,8.40
2023,04,23,07,50,8.30
2023,04,23,07,55,8.20
2023,04,23,08,00,8.20
2023,04,23,08,05,8.00
2023,04,23,08,10,8.00
2023,04,23,08,15,7.90
2023,04,23,08,20,7.90
2023,04,23,08,25,7.80
2023,04,23,08,30,7.90
2023,04,23,08,35,7.90
2023,04,23,08,40,8.00
2023,04,23,08,45,8.00
2023,04,23,08,50,8.00
2023,04,23,08,55,7.90
2023,04,23,09,00,8.10
2023,04,23,09,05,8.20
2023,04,23,09,10,8.30
2023,04,23,09,15,8.50
2023,04,23,09,20,8.60
2023,04,23,09,25,8.80
2023,04,23,09,30,8.80
2023,04,23,09,35,8.90
2023,04,23,09,40,8.90
2023,04,23,09,45,8.80
2023,04,23,09,50,8.80
2023,04,23,09,55,9.00
2023,04,23,10,05,9.00
2023,04,23,10,10,9.00
2023,04,23,10,20,9.10
2023,04,23,10,25,9.30
2023,04,23,10,30,9.30
2023,04,23,10,40,9.50
2023,04,23,10,45,9.60
2023,04,23,10,50,9.90
2023,04,23,10,55,9.80
2023,04,23,11,00,9.90
2023,04,23,11,05,9.90
2023,04,23,11,10,9.90
2023,04,23,11,25,10.00
2023,04,23,11,30,9.90
2023,04,23,11,35,9.80
2023,04,23,11,45,9.70
2023,04,23,11,50,9.80
2023,04,23,12,00,9.90
2023,04,23,12,05,10.00
2023,04,23,12,10,10.00
2023,04,23,12,15,9.90
2023,04,23,12,20,10.00
2023,04,23,12,25,10.00
2023,04,23,12,30,10.00
2023,04,23,12,35,10.00
2023,04,23,12,40,10.00
2023,04,23,12,45,9.90
2023,04,23,12,50,10.00
2023,04,23,12,55,10.00
2023,04,23,13,00,10.00
2023,04,23,13,05,10.00
2023,04,23,13,10,10.00
2023,04,23,13,15,10.10
2023,04,23,13,20,10.10
2023,04,23,13,25,10.10
2023,04,23,13,30,10.10
2023,04,23,13,35,10.10
2023,04,23,13,40,10.20
2023,04,23,13,45,10.20
2023,04,23,13,50,10.10
2023,04,23,13,55,10.00
2023,04,23,14,00,9.80
2023,04,23,14,05,9.60
2023,04,23,14,10,9.50
2023,04,23,14,15,9.50
2023,04,23,14,20,9.50
2023,04,23,14,25,9.50
2023,04,23,14,30,9.50
2023,04,23,14,35,9.50
2023,04,23,14,40,9.50
2023,04,23,14,45,9.60
2023,04,23,14,50,9.70
2023,04,23,14,55,9.60
2023,04,23,15,00,9.70
2023,04,23,15,05,9.60
2023,04,23,15,10,9.70
2023,04,23,15,15,9.70
2023,04,23,15,20,9.80
2023,04,23,15,30,9.60
2023,04,23,15,35,9.60
2023,04,23,15,40,9.50
2023,04,23,15,50,9.40
2023,04,23,15,55,9.30
2023,04,23,16,00,9.20
2023,04,23,16,05,9.30
2023,04,23,16,10,9.30
2023,04,23,16,15,9.30
2023,04,23,16,20,9.30
2023,04,23,16,25,9.20
2023,04,23,16,30,9.10
2023,04,23,16,35,9.20
2023,04,23,16,45,9.20
2023,04,23,16,50,9.10
2023,04,23,16,55,9.10
2023,04,23,17,00,9.10
2023,04,23,17,10,9.10
2023,04,23,17,15,9.10
2023,04,23,17,20,9.10
2023,04,23,17,30,9.00
2023,04,23,17,35,8.90
2023,04,23,17,40,8.80
2023,04,23,17,45,8.80
2023,04,23,17,50,8.80
2023,04,23,17,55,8.80
2023,04,23,18,00,8.80
2023,04,23,18,05,8.80
2023,04,23,18,10,8.80
2023,04,23,18,15,8.80
2023,04,23,18,20,8.80
2023,04,23,18,25,8.80
2023,04,23,18,30,8.80
2023,04,23,18,35,8.80
2023,04,23,18,40,8.80
2023,04,23,18,45,8.90
2023,04,23,18,50,8.90
2023,04,23,18,55,8.80
2023,04,23,19,00,8.80
2023,04,23,19,05,8.80
2023,04,23,19,15,8.80
2023,04,23,19,20,8.80
2023,04,23,19,25,8.80
2023,04,23,19,30,8.80
2023,04,23,19,35,8.80
2023,04,23,19,40,8.70
2023,04,23,19,45,8.70
2023,04,23,19,55,8.70
2023,04,23,20,00,8.60
2023,04,23,20,05,8.60
2023,04,23,20,15,8.50
2023,04,23,20,20,8.40
2023,04,23,20,25,8.40
2023,04,23,20,30,8.30
2023,04,23,20,35,8.30
2023,04,23,20,40,8.30
2023,04,23,20,45,8.20
2023,04,23,20,50,8.20
2023,04,23,20,55,8.20
2023,04,23,21,00,8.20
2023,04,23,21,05,8.10
2023,04,23,21,10,8.10
2023,04,23,21,15,8.10
2023,04,23,21,20,8.10
2023,04,23,21,25,8.10
2023,04,23,21,30,8.10
2023,04,23,21,35,8.00
2023,04,23,21,40,8.00
2023,04,23,21,45,8.00
2023,04,23,21,50,8.00
2023,04,23,21,55,8.00
2023,04,23,22,00,8.00
2023,04,23,22,05,7.90
2023,04,23,22,10,7.90
2023,04,23,22,15,7.90
2023,04,23,22,20,7.90
2023,04,23,22,25,7.90
2023,04,23,22,30,7.90
2023,04,23,22,35,7.80
2023,04,23,22,40,7.80
2023,04,23,22,45,7.80
2023,04,23,22,50,7.80
2023,04,23,22,55,7.80
2023,04,23,23,00,7.80
2023,04,23,23,05,7.80
2023,04,23,23,10,7.70
2023,04,23,23,15,7.70
2023,04,23,23,20,7.70
2023,04,23,23,25,7.70
2023,04,23,23,30,7.70
2023,04,23,23,35,7.70
2023,04,23,23,40,7.70
2023,04,23,23,45,7.60
2023,04,23,23,50,7.60
2023,04,23,23,55,7.50
